Back to catalog

THORAD DELTA 1 DEB

AliveSSO
NORAD 8566·DEBRIS·🇺🇸 United States

Launched Nov 15, 1974 from Vandenberg Space Force Base

Loading…

Next Passes (next 24 hours)

TLE

FreshSource: Space-Track

Epoch: Sep 13, 2026, 16:53 UTC

1 08566U 74089DD  26256.70349080 -.00000162  00000-0 -60669-3 0  9996
2 08566 101.3623 332.2401 0086768 248.0927 267.5597 12.67025188310066

Track THORAD DELTA 1 DEB in real time with AllMySat

Download on the App Store